User: anonymous   Login
Location: Unspecified
(0.0000°N, 0.0000°E)
Time: 19:02:46
(UTC+00:00)
Language:

Tsikada - Orbit

View from above orbital plane
View from above orbital plane
View from above satellite
View from above satellite

Ground track
Ground track

The orbit data is extracted from the following two-line orbital elements,

1 23463U 95002A   17084.87503582 +.00000039 +00000-0 +25417-4 0  9997
2 23463 082.9306 347.6790 0039745 137.7559 292.7075 13.72468655110392
Epoch (UTC): 25 March 2017 21:00:03
Eccentricity: 0.0039745
inclination: 82.9306°
perigee height: 961 km
apogee height: 1020 km
right ascension of ascending node: 347.6790°
argument of perigee: 137.7559°
revolutions per day: 13.72468655
mean anomaly at epoch: 292.7075°
orbit number at epoch: 11039

The dashed part of the orbit path shows where the satellite is in the earth's shadow,  

DLR